Regional Weather Roundup
Issued by NWS Wakefield, VA

Home | Current Version | Previous Version | Graphics & Text | Print | Product List | Glossary On
Versions: 1 2 3 4 5 6 7 8 9 10 11 12 13 14 15 16 17 18 19 20 21 22 23 24 25 26 27
000
ASUS41 KAKQ 200914
RWRAKQ

REGIONAL WEATHER ROUNDUP
NATIONAL WEATHER SERVICE WAKEFIELD VA
500 AM EDT SUN MAY 20 2018

Note: "fair" indicates few or no clouds below 12,000 feet with no
significant weather and/or obstructions to visibility. * = Denotes
station may not report precipitation (e.g., rain,snow,etc.),
thunder or fog.

VAZ042-051-052>054-056-201000-
NORTHERN VIRGINIA

CITY           SKY/WX    TMP DP  RH WIND       PRES   REMARKS
WASH NATIONAL  CLOUDY    70  67  90 S9        30.00S
DULLES         CLOUDY    67  67 100 S3        30.00R
FORT BELVOIR   MOCLDY    72  68  88 S5        30.00S
QUANTICO       CLOUDY    73  70  90 SW7       30.02R
FREDERICKSBRG* CLOUDY    72  72 100 SW7       30.01R
STAFFORD*      CLOUDY    72  72 100 S7        30.05S
WARRENTON      CLOUDY    71  67  88 SW7       30.00S
CULPEPER*      FAIR      69  67  94 SW5       30.02R
MANASSAS*      CLOUDY    70  69  97 S6        30.01R
LEESBURG*      MOCLDY    63  63 100 S7        30.01S
WINCHESTER     FAIR      63  63 100 S5        30.01S
FRONT ROYAL*   FAIR     N/A N/A N/A SW3       29.99S
LURAY*         FAIR      64  64 100 SW6       30.02R
$$

VAZ048-049-060>072-079>083-201000-
CENTRAL AND SOUTH CENTRAL VIRGINIA

CITY           SKY/WX    TMP DP  RH WIND       PRES   REMARKS
RICHMOND       CLOUDY    72  68  87 S12G22    30.06S
CHESTERFIELD*  CLOUDY    71  67  87 S8G18     30.07S
PETERSBURG*    CLOUDY    71  66  84 SW6       30.09F
HANOVER        CLOUDY    71  68  90 S13       30.06S
TAPPAHANNOCK*  CLOUDY    72  69  90 S7        30.06S
QUINTON*       CLOUDY    71  70  98 S6        30.07S
CHARLOTTSVILLE CLOUDY    71  69  93 S9        30.02S
GORDONSVILLE*  CLOUDY    70  70 100 SW8       30.02S
ORANGE*        CLOUDY    70  68  94 SW8       30.02R
LOUISA*        CLOUDY    69  68  95 S8        30.07S
BUMPASS*       CLOUDY    69  68  95 SW7       30.04R
FARMVILLE*     CLOUDY   N/A N/A N/A S8        30.05S
CREWE*         CLOUDY    70  70 100 S3        30.07S
FORT PICKETT*  CLOUDY    69  69 100 S10       30.09S
CHASE CITY*    CLOUDY    70  70 100 S5        30.09S
CLARKSVILLE*   CLOUDY    70  70 100 S5        30.09S
SOUTH HILL*    CLOUDY    69  69 100 S8        30.16S
LAWRENCEVILLE* CLOUDY    70  68  94 S7        30.10S
EMPORIA*       CLOUDY    70  68  94 S5        30.12S
$$

VAZ088>098-201000-
SOUTHEAST VIRGINIA

CITY           SKY/WX    TMP DP  RH WIND       PRES   REMARKS
NORFOLK        LGT RAIN  73  72  96 S12       30.10S
VIRGINIA BEACH MOCLDY    72  71  97 SW14      30.10S
NORFOLK NAVAL  CLOUDY    73  69  87 SW10      30.11S
WEST POINT*    CLOUDY    72  67  85 SW13      30.09F
SALUDA*        CLOUDY    72  71  96 S10G18    30.07S
NEWPORT NEWS   CLOUDY    73  69  87 SW13      30.10R
LANGLEY AFB    MOCLDY    73  71  94 SW13      30.09S
FORT EUSTIS    MOCLDY    73  69  89 SW9       30.07R
WILLIAMSBURG*  FAIR      73  68  83 SW7       30.10S
HR EXEC AP*    CLOUDY    72  70  93 S8        30.12R
FRANKLIN*      CLOUDY    71  70  97 SW7       30.12R
US460-WAKEFLD  CLOUDY    71  68  90 SW6       30.10R
$$

VAZ020-022-025-037-045-201000-
WEST CENTRAL AND SOUTHWEST VIRGINIA

CITY           SKY/WX    TMP DP  RH WIND       PRES   REMARKS
STAUNTON*      FAIR      65  64  97 SW5       30.06S
WAYNESBORO*    FAIR      66  65  99 CALM      30.07R
HOT SPRINGS VA ICE FOG  -14 -14 100 W14       30.15S VSB 1/2 WCI -37
LYNCHBURG      CLOUDY    67  65  93 CALM      30.08R
DANVILLE       LGT RAIN  69  69 100 S3        30.08S
SOUTH BOSTON*  CLOUDY    71  69  93 S8        30.08F
MARTINSVILLE   MOCLDY    68  67  96 CALM      30.11R
ROANOKE        FAIR      66  64  93 NW5       30.10R
BLACKSBURG     CLOUDY    64  64 100 CALM      30.17R FOG
DUBLIN*        FAIR      63  63 100 SW7       30.15R
MARION*        CLOUDY    64  64  98 CALM      30.19R
HILLSVILLE*    FAIR      62  61  96 SW6       30.16R
RICHLANDS*     HAZE      61  51  69 CALM      30.17R VSB<1/4
WISE*          FOG       59  59 100 CALM      30.18R VSB 1/4
ABINGDON*      CLOUDY    65  65 100 CALM      30.16R FOG
$$

MDZ021>025-VAZ099-100-201000-
SOUTHERN MARYLAND AND THE DELMARVA PENINSULA

CITY           SKY/WX    TMP DP  RH WIND       PRES   REMARKS
PATUXENT RIVER CLOUDY   N/A N/A N/A S12G20    30.03S
BAY BRIDGE APT CLOUDY    70  68  94 S9G17     30.01S
LEONARDTOWN    CLOUDY    70  66  88 S9G17     30.04F
DOVER          CLOUDY    72  68  88 S16       30.00F
GEORGETOWN     MOCLDY    72  68  87 SW12      30.05S
EASTON         CLOUDY    73  68  86 SW14      30.06S
CAMBRIDGE        N/A     72  68  88 S10G18    30.04S
SALISBURY      CLOUDY    71  70  96 SW10      30.05S
TANGIER        NOT AVBL
OCEAN CITY     CLOUDY    68  68 100 SW9       30.07S
WALLOPS ISLAND CLOUDY    69  68  96 S8        30.08S
ACCOMACK*      CLOUDY    73  70  91 SW13G23   30.08S
$$

NCZ012>017-030>032-201000-
NORTH CENTRAL AND EASTERN NORTH CAROLINA

CITY           SKY/WX    TMP DP  RH WIND       PRES   REMARKS
ROANOKE RAPIDS CLOUDY    70  70 100 CALM      30.12S
RALEIGH        CLOUDY    70  69  97 SW8       30.12S
ELIZABETH CITY FAIR      75  72  90 S14       30.12F
AHOSKIE*       MOCLDY    70  70 100 S5        30.12S
EDENTON*       NOT AVBL
CURRITUCK*     NOT AVBL
KILL DEVIL HLS FAIR      74  70  87 SW7       30.14R
MANTEO         FAIR      74  71  88 SW14      30.15S
CAPE HATTERAS  CLOUDY    72  70  93 SW9       30.17R FOG
TARBORO*       NOT AVBL
GOLDSBORO      CLOUDY   N/A N/A N/A S3        30.13R
WASHINGTON     CLOUDY    73  71  95 CALM      30.14S
GREENVILLE     MOCLDY    72  72 100 S3        30.14S
NEW BERN       MOCLDY    72  71  97 S7        30.16S FOG
WILMINGTON     MOCLDY    73  70  90 CALM      30.14S
$$

VAZ048-201000-
ELSEWHERE

CITY           SKY/WX    TMP DP  RH WIND       PRES   REMARKS
HARRISBURG PA  CLOUDY    61  60  97 NW3       29.97R FOG
BALTIMORE      CLOUDY    70  69  97 VRB3      29.99S
ANNAPOLIS      CLOUDY    71  68  90 S7        29.99F
ANDREWS AFB    MOCLDY    70  68  92 S9        29.99F
PHILADELPHIA   CLOUDY    70  67  90 SW13      29.98F
HENDERSON NC   CLOUDY    67  65  91 SW10      30.11S
GREENSBORO     CLOUDY    70  69  97 SW7       30.10R
ROCKY MOUNT    CLOUDY    70  69  97 S8        30.13R
$$

VAZ100-201000-
MARINE

STATION/POSITION TIME  TEMP    WIND        PRES    WAVE   SWELL
                       AIR SEA DIR/SP/G            HT/PER HT/PER
                 (UTC) (F)     (DEG/KT/KT) (MB)    (FT/S) (FT/S)
BRANDYWINE LGT   0836   68     210/ 13/ 16 1017.3S
CAPE MAY NJ      0836   67 61  170/  7/ 10 1016.8F
LEWES DE         0836   71 61  230/  8/ 12 1017.2R
15NM E FENWICK I 0850   56 55  210/ 14/ 16 1018.3F   5/ 7   3/ 7
OCEAN-CITY-INLET 0836   62 60  220/ 12/ 13 1018.7F
WACHAPREAGUE VA  0836   72 70  230/  8/ 13 1018.7S
THOMAS POINT MD  0900   68 64  170/ 15/ 15 1016.7F
GOOSES REEF MD   0900   70     200/ 12/ 17 1017.1    2/ 3
COVE POINT MD    0836   71     210/ 13/ 15 1017.5F
SOLOMONS ISLAND  0836   71 67  210/ 14/ 16 1016.7S
BISHOPS HEAD MD  0836   71 70  200/ 12/ 14 1018.1S
PINEY POINT MD   0842          230/ 14/ 16   N/A
POTOMAC MD       0900   72 68  210/ 14/ 16 1016.9    2/ 2
CAMBRIDGE MD     0836   72 69              1018.1F
LEWISETTA VA     0836   72 71  230/ 11/ 14 1017.5R
RAPPAHANNOCK LGT 0842          190/ 17/ 19 1019.2R
STINGRAY PT      0900   72 69  250/ 16/ 19 1020.1    2/ 2
YORK RVR RNG VA  0842   73     240/ 14/ 17 1019.5R
YORKTOWN VA      0842   73 70  220/  9/ 15 1018.4R
DOMINION TERM VA 0842   73     210/ 14/ 16 1019.5R
KIPTOPEKE VA     0842      68  210/ 10/ 12   N/A
CAPE HENRY VA    0842   73     200/ 10/ 14   N/A
WILLOUBY STN VA  0842          210/ 15/ 16   N/A
S CRANEY ISL VA  0842   73     210/ 12/ 16 1019.1S
CAPE HENRY BUOY  0900      66                N/A     4/ 8
1ST LANDING BUOY 0900   71 67  220/ 14/ 16 1019.0    1/ 4
64NM E OF VA BCH 0850   66 62  200/ 12/ 14 1021.0S   6/ 7   5/ 7
DUCK PIER NC     0842   75 59  200/ 14/ 17 1020.1R
44100 DUCK FRF   0845      67                N/A     4/ 8
44056 DUCK FRF   0900      60                N/A     3/ 7
OREGON INLET NC  0842   76 75  190/ 19/ 23 1020.7F
HATTERAS NC      0842   73 75  200/  4/ 10 1021.3R
DIAMOND SHLS NC  0900   77 75  210/ 17/ 21 1022.0
CAPE LOOKOUT NC  0900          190/  9/ 11 1021.6R
$$




USA.gov is the U.S. government's official web portal to all federal, state and local government web resources and services.